Regional Weather Roundup
Issued by NWS

Home | Current Version | Previous Version | Graphics & Text | Print | Product List | Glossary On
Versions: 1 2 3 4 5 6 7 8 9 10 11 12 13 14 15 16 17 18 19 20 21 22 23 24 25 26 27 28 29 30 31 32 33 34 35 36 37 38 39 40 41 42 43 44 45 46 47 48 49 50
000
ASUS43 KMKX 232310
RWRWI

WISCONSIN REGIONAL WEATHER ROUNDUP
NATIONAL WEATHER SERVICE MILWAUKEE/SULLIVAN WI
600 PM CDT WED JUL 23 2014

NOTE: "FAIR" INDICATES FEW OR NO CLOUDS BELOW 12,000 FEET WITH NO
SIGNIFICANT WEATHER AND/OR OBSTRUCTIONS TO VISIBILITY.

WIZ001-002-006>008-014>016-023>028-240000-
NORTHWEST WISCONSIN

CITY           SKY/WX    TMP DP  RH WIND       PRES   REMARKS
SUPERIOR ARPT  SUNNY     70  57  62 E5        30.19S
ASHLAND        SUNNY     73  54  51 NE6       30.21F
HAYWARD        SUNNY     74  51  44 NE10      30.21S
SIREN          PTSUNNY   78  52  40 NE6       30.20S
RICE LAKE      SUNNY     77  51  40 NW6       30.21S
LADYSMITH      MOSUNNY   76  53  45 N10       30.20F
EAU CLAIRE     SUNNY     80  51  36 N10       30.16F HX  80
MENOMONIE      PTCLDY    78  53  41 W6        30.18S
NEW RICHMOND   MOSUNNY   75  53  46 N3        30.19F
OSCEOLA        SUNNY     78  54  43 W3        30.21S
$$

WIZ003>005-009-010-017-018-240000-
NORTH CENTRAL WISCONSIN

CITY           SKY/WX    TMP DP  RH WIND       PRES   REMARKS
WOODRUFF       MOSUNNY   72  52  48 N8        30.21F
RHINELANDER    MOSUNNY   69  51  52 VRB5      30.20F
EAGLE RIVER    MOSUNNY   68  50  51 N8        30.20F
LAND O LAKES   MOSUNNY   69  51  52 NE3       30.22S
PHILLIPS       MOSUNNY   71  54  54 N6        30.20F
TOMAHAWK       SUNNY     71  53  52 CALM      30.20S
MEDFORD        PTSUNNY   74  54  50 N7        30.18F
MERRILL        MOSUNNY   73  54  51 N6        30.18F
$$

WIZ029-030-035-036-043>047-240000-
CENTRAL WISCONSIN

CITY           SKY/WX    TMP DP  RH WIND       PRES   REMARKS
WAUSAU         MOSUNNY   76  51  41 N7        30.16F
MOSINEE        PTSUNNY   73  54  49 NW6       30.19S
MARSHFIELD     PTSUNNY   76  54  46 NE7       30.17F
STEVENS POINT  PTSUNNY   72  51  47 N5        30.17F
WAUPACA        SUNNY     78  48  34 NE3       30.16F
WAUTOMA        MOSUNNY   77  52  41 NE7       30.16F
WISC RAPIDS    MOSUNNY   79  53  40 N10       30.17F
CAMP DOUGLAS   PTSUNNY   77  59  53 N3        30.15F
$$

WIZ011>013-019>022-031-037>040-048>050-240000-
NORTHEAST WISCONSIN

CITY           SKY/WX    TMP DP  RH WIND       PRES   REMARKS
ANTIGO         MOSUNNY   71  51  50 NE9       30.19F
STURGEON BAY   MOSUNNY   72  46  40 N12       30.17F
GREEN BAY      MOSUNNY   71  52  50 NE9       30.16F
MANITOWOC      PTSUNNY   67  51  56 NE8       30.17F
APPLETON       MOSUNNY   72  48  43 NE10      30.16F
CLINTONVILLE   SUNNY     73  46  38 NE6       30.16F
OSHKOSH        MOSUNNY   73  54  51 NE9       30.15F
$$

WIZ032>034-041-042-053>061-240000-
SOUTHWEST WISCONSIN

CITY           SKY/WX    TMP DP  RH WIND       PRES   REMARKS
LA CROSSE      PTSUNNY   79  56  45 N5        30.15F HX  80
SPARTA         MOSUNNY   79  51  37 NW7       30.16F
VIROQUA        CLOUDY    74  57  56 N6        30.18S
BOSCOBEL       SUNNY     81  54  39 N7        30.15F HX  81
PRAIRIE DU CHI SUNNY     78  50  37 NE5       30.14F
PLATTEVILLE    FAIR      77  55  46 N8        30.16F
$$

WIZ056-057-062-063-064-067-068-240000-
SOUTH CENTRAL WISCONSIN

CITY           SKY/WX    TMP DP  RH WIND       PRES   REMARKS
BARABOO/DELLS  PTSUNNY   76  49  38 N6        30.15S
LONE ROCK      SUNNY     82  56  40 NW7       30.14F HX  82
WATERTOWN      MOSUNNY   73  54  50 NE8       30.14F
MADISON        PTSUNNY   78  56  46 NE13      30.14F
MIDDLETON      FAIR      78  51  39 N7        30.14F
MONROE         MOSUNNY   75  55  50 NE7       30.15S
JANESVILLE     MOSUNNY   79  48  34 N12G17    30.13F
$$

WIZ051-052-058>065-066-070>072-240000-
SOUTHEAST WISCONSIN

CITY           SKY/WX    TMP DP  RH WIND       PRES   REMARKS
MILWAUKEE      MOSUNNY   63  52  67 NE13G20   30.17F
WAUKESHA       MOSUNNY   66  52  59 NE12      30.18S
MILWAUKEE/TIMM SUNNY     66  46  48 NE17G25   30.18F
RACINE         SUNNY     65  53  65 N18       30.18S
BURLINGTON     SUNNY     66  53  61 NE9       30.16S
KENOSHA        SUNNY     66  52  60 NE9G22    30.17R
FOND DU LAC    MOSUNNY   74  52  46 NE16      30.16F
SHEBOYGAN      MOSUNNY   63  50  62 NE10      30.17F
WEST BEND      MOSUNNY   64  50  59 E8        30.17S
JUNEAU         MOSUNNY   73  47  39 N12       30.16S
$$

LSZ147-162-240000-
LAKE SUPERIOR

STATION/POSITION TIME  TEMP    WIND        PRES    WAVE
                       AIR SEA DIR/SP/G            HT/PER
                 (UTC) (F)     (DEG/KT/KT) (MB)    (FT/S)
$$

LMZ867-665-643>646-240000-
LAKE MICHIGAN

STATION/POSITION TIME  TEMP    WIND        PRES    WAVE
                       AIR SEA DIR/SP/G            HT/PER
                 (UTC) (F)     (DEG/KT/KT) (MB)    (FT/S)
$$

TC  - TEMPERATURE IN CELSIUS
VSB - VISIBILITY IN STATUTE MILES
WCI - WIND CHILL INDEX
HX  - HEAT INDEX




USA.gov is the U.S. government's official web portal to all federal, state and local government web resources and services.